KLM85Y LEBB-EHAM

Flight info

Callsign KLM85Y
Flight time 1h 44m
Altitude 20000
Route BISKA P87 BELEN/N0441F340 DCT DIDIG DCT USODA DCT ERCUT DCT DITAL UN873 BAZOS DCT LUMIL DCT BELOB UY873 DENUT
Aircraft B738/M-SDE2E3FGHIRWXY/LB1

Departure

Time 2026-05-04 12:50
Airport Bilbao Airport (LEBB)

Arrival

Time 2026-05-04 14:35
Airport Amsterdam Airport Schiphol (EHAM)
Time Latitude Longitude Altitude Speed Heading
2026-05-04 12:32 43.30425 -2.90636 131 ft 0 kts 26°
2026-05-04 12:40 43.30422 -2.90638 131 ft 3 kts 26°
2026-05-04 12:41 43.30398 -2.90654 131 ft 4 kts 33°
2026-05-04 12:41 43.30382 -2.90676 131 ft 3 kts 66°
2026-05-04 12:41 43.30378 -2.90708 131 ft 4 kts 109°
2026-05-04 12:41 43.30389 -2.90740 131 ft 2 kts 117°
2026-05-04 12:42 43.30389 -2.90741 131 ft 1 kts 116°
2026-05-04 12:44 43.30386 -2.90732 131 ft 3 kts 116°
2026-05-04 12:44 43.30374 -2.90699 131 ft 6 kts 116°
2026-05-04 12:45 43.30349 -2.90630 131 ft 10 kts 121°
2026-05-04 12:45 43.30288 -2.90560 131 ft 12 kts 144°
2026-05-04 12:45 43.30208 -2.90537 127 ft 13 kts 206°
2026-05-04 12:45 43.30129 -2.90568 129 ft 12 kts 158°
2026-05-04 12:46 43.30081 -2.90474 129 ft 13 kts 116°
2026-05-04 12:46 43.30041 -2.90365 131 ft 13 kts 117°
2026-05-04 12:46 43.30002 -2.90259 131 ft 12 kts 117°
2026-05-04 12:46 43.29965 -2.90155 131 ft 12 kts 116°
2026-05-04 12:47 43.29928 -2.90054 131 ft 12 kts 117°
2026-05-04 12:47 43.29891 -2.89954 131 ft 12 kts 117°
2026-05-04 12:47 43.29852 -2.89847 127 ft 13 kts 116°
2026-05-04 12:47 43.29810 -2.89735 128 ft 14 kts 116°
2026-05-04 12:48 43.29767 -2.89617 128 ft 14 kts 116°
2026-05-04 12:48 43.29725 -2.89512 130 ft 12 kts 130°
2026-05-04 12:48 43.29660 -2.89522 130 ft 11 kts 248°
2026-05-04 12:48 43.29636 -2.89627 125 ft 14 kts 256°
2026-05-04 12:49 43.29634 -2.89757 124 ft 14 kts 288°
2026-05-04 12:49 43.29646 -2.89793 126 ft 0 kts 295°
2026-05-04 12:49 43.29657 -2.89823 124 ft 18 kts 296°
2026-05-04 12:50 43.29827 -2.90290 125 ft 91 kts 296°
2026-05-04 12:50 43.30209 -2.91330 128 ft 151 kts 297°
2026-05-04 12:50 43.30695 -2.92693 683 ft 161 kts 297°
2026-05-04 12:50 43.31216 -2.94083 1505 ft 167 kts 299°
2026-05-04 12:51 43.31794 -2.95580 2149 ft 188 kts 298°
2026-05-04 12:51 43.32401 -2.97250 2734 ft 201 kts 297°
2026-05-04 12:51 43.33385 -2.98709 2975 ft 223 kts 330°
2026-05-04 12:51 43.34883 -2.99467 3493 ft 235 kts 339°
2026-05-04 12:52 43.36265 -3.00736 4024 ft 250 kts 310°
2026-05-04 12:52 43.37341 -3.02657 4769 ft 259 kts 308°
2026-05-04 12:52 43.38471 -3.04635 5553 ft 264 kts 309°
2026-05-04 12:52 43.39642 -3.06562 6547 ft 262 kts 312°
2026-05-04 12:53 43.41184 -3.07946 7221 ft 272 kts 344°
2026-05-04 12:53 43.43089 -3.07910 8008 ft 283 kts 17°
2026-05-04 12:53 43.44718 -3.06433 8818 ft 293 kts 50°
2026-05-04 12:53 43.45592 -3.03925 9803 ft 295 kts 76°
2026-05-04 12:54 43.45937 -3.01110 10777 ft 297 kts 80°
2026-05-04 12:54 43.46578 -2.98305 11078 ft 320 kts 71°
2026-05-04 12:54 43.47096 -2.95221 11296 ft 341 kts 84°
2026-05-04 12:54 43.47183 -2.91946 11816 ft 350 kts 91°
2026-05-04 12:55 43.47598 -2.88635 12453 ft 357 kts 66°
2026-05-04 12:55 43.49081 -2.85913 13178 ft 360 kts 38°
2026-05-04 12:55 43.51312 -2.84354 13819 ft 363 kts 11°
2026-05-04 12:55 43.53825 -2.84122 14409 ft 364 kts 356°
2026-05-04 12:56 43.56383 -2.84127 14991 ft 370 kts
2026-05-04 12:56 43.58972 -2.83862 15579 ft 376 kts
2026-05-04 12:56 43.61595 -2.83321 16158 ft 381 kts
2026-05-04 12:56 43.64213 -2.82614 16730 ft 386 kts 10°
2026-05-04 12:57 43.66823 -2.81854 17332 ft 390 kts 11°
2026-05-04 12:57 43.69485 -2.81057 17938 ft 394 kts 12°
2026-05-04 12:57 43.72172 -2.80191 18488 ft 398 kts 12°
2026-05-04 12:57 43.74879 -2.79301 18994 ft 402 kts 12°
2026-05-04 12:58 43.77610 -2.78403 19515 ft 405 kts 12°
2026-05-04 12:58 43.80372 -2.77500 20027 ft 409 kts 13°
2026-05-04 12:58 43.83150 -2.76593 20551 ft 412 kts 13°
2026-05-04 12:58 43.85955 -2.75679 21045 ft 416 kts 13°
2026-05-04 12:59 43.88788 -2.74755 21519 ft 420 kts 13°
2026-05-04 12:59 43.91648 -2.73833 21992 ft 423 kts 12°
2026-05-04 12:59 43.94554 -2.73065 22458 ft 427 kts
2026-05-04 12:59 43.97501 -2.72404 22921 ft 431 kts
2026-05-04 13:00 44.00480 -2.71780 23381 ft 434 kts
2026-05-04 13:00 44.03482 -2.71159 23752 ft 439 kts
2026-05-04 13:00 44.06515 -2.70523 24135 ft 442 kts
2026-05-04 13:00 44.09559 -2.69873 24568 ft 443 kts
2026-05-04 13:01 44.12580 -2.69216 25007 ft 445 kts
2026-05-04 13:01 44.15641 -2.68543 25433 ft 447 kts
2026-05-04 13:01 44.18724 -2.67859 25821 ft 449 kts
2026-05-04 13:01 44.21821 -2.67170 26240 ft 451 kts
2026-05-04 13:02 44.24938 -2.66475 26476 ft 458 kts
2026-05-04 13:02 44.28120 -2.65765 26714 ft 464 kts
2026-05-04 13:02 44.31313 -2.65051 27134 ft 465 kts
2026-05-04 13:02 44.34510 -2.64336 27556 ft 466 kts
2026-05-04 13:03 44.37730 -2.63615 27916 ft 469 kts
2026-05-04 13:03 44.40959 -2.62892 28243 ft 472 kts
2026-05-04 13:03 44.44208 -2.62163 28600 ft 474 kts
2026-05-04 13:03 44.47482 -2.61428 28934 ft 477 kts
2026-05-04 13:04 44.50763 -2.60691 29246 ft 479 kts
2026-05-04 13:04 44.54064 -2.59949 29553 ft 482 kts
2026-05-04 13:04 44.57392 -2.59199 29861 ft 484 kts
2026-05-04 13:04 44.60717 -2.58449 30245 ft 483 kts
2026-05-04 13:05 44.63981 -2.57713 30708 ft 479 kts
2026-05-04 13:05 44.67269 -2.56970 31122 ft 477 kts
2026-05-04 13:05 44.70552 -2.56227 31436 ft 478 kts
2026-05-04 13:05 44.73835 -2.55483 31729 ft 478 kts
2026-05-04 13:06 44.77126 -2.54737 32077 ft 477 kts
2026-05-04 13:06 44.80399 -2.53994 32449 ft 476 kts
2026-05-04 13:06 44.83661 -2.53252 32820 ft 475 kts
2026-05-04 13:06 44.86922 -2.52510 33135 ft 474 kts
2026-05-04 13:07 44.90181 -2.51768 33458 ft 474 kts
2026-05-04 13:07 44.93432 -2.51026 33793 ft 473 kts
2026-05-04 13:07 44.96684 -2.50284 34020 ft 474 kts
2026-05-04 13:08 45.02141 -2.49036 33995 ft 478 kts
2026-05-04 13:08 45.08696 -2.47533 33976 ft 473 kts
2026-05-04 13:09 45.15172 -2.46045 33987 ft 471 kts
2026-05-04 13:09 45.21644 -2.44555 33993 ft 471 kts
2026-05-04 13:10 45.28078 -2.43071 33990 ft 472 kts
2026-05-04 13:10 45.34562 -2.41571 33984 ft 472 kts
2026-05-04 13:11 45.41050 -2.40067 33988 ft 472 kts
2026-05-04 13:11 45.47538 -2.38559 33979 ft 472 kts
2026-05-04 13:12 45.54018 -2.37049 33977 ft 472 kts
2026-05-04 13:12 45.60509 -2.35534 33986 ft 471 kts
2026-05-04 13:13 45.66976 -2.34020 33958 ft 470 kts
2026-05-04 13:13 45.73427 -2.32507 33976 ft 469 kts
2026-05-04 13:14 45.79827 -2.31002 33990 ft 468 kts
2026-05-04 13:14 45.86258 -2.29486 33978 ft 468 kts
2026-05-04 13:15 45.92683 -2.27968 33975 ft 467 kts
2026-05-04 13:15 45.99098 -2.26449 33986 ft 466 kts
2026-05-04 13:16 46.05381 -2.24289 33978 ft 464 kts 22°
2026-05-04 13:16 46.10996 -2.19777 33983 ft 462 kts 34°
2026-05-04 13:17 46.16330 -2.14610 33977 ft 461 kts 35°
2026-05-04 13:17 46.21656 -2.09464 33970 ft 460 kts 35°
2026-05-04 13:18 46.26991 -2.04365 33961 ft 459 kts 34°
2026-05-04 13:18 46.32324 -1.99286 33949 ft 458 kts 34°
2026-05-04 13:19 46.37648 -1.94207 33967 ft 458 kts 35°
2026-05-04 13:19 46.42964 -1.89120 33967 ft 458 kts 35°
2026-05-04 13:20 46.48240 -1.84057 33965 ft 458 kts 35°
2026-05-04 13:20 46.53570 -1.78931 33967 ft 459 kts 35°
2026-05-04 13:21 46.58894 -1.73799 33968 ft 460 kts 36°
2026-05-04 13:21 46.64222 -1.68650 33964 ft 460 kts 36°
2026-05-04 13:22 46.69559 -1.63481 33965 ft 461 kts 36°
2026-05-04 13:22 46.74903 -1.58292 33960 ft 461 kts 36°
2026-05-04 13:23 46.80208 -1.53128 33968 ft 461 kts 36°
2026-05-04 13:23 46.85547 -1.47918 33965 ft 461 kts 36°
2026-05-04 13:24 46.90881 -1.42700 33966 ft 461 kts 36°
2026-05-04 13:24 46.96191 -1.37461 33967 ft 460 kts 39°
2026-05-04 13:25 47.00752 -1.31015 33978 ft 454 kts 51°
2026-05-04 13:25 47.02840 -1.27536 33968 ft 455 kts 52°
2026-05-04 13:25 47.07008 -1.20554 33942 ft 454 kts 51°
2026-05-04 13:26 47.11177 -1.13650 33965 ft 455 kts 51°
2026-05-04 13:26 47.15397 -1.06704 33961 ft 456 kts 51°
2026-05-04 13:27 47.19627 -0.99738 33965 ft 457 kts 51°
2026-05-04 13:27 47.23871 -0.92725 33966 ft 459 kts 51°
2026-05-04 13:28 47.28112 -0.85698 33962 ft 460 kts 51°
2026-05-04 13:28 47.32364 -0.78632 33953 ft 461 kts 51°
2026-05-04 13:29 47.36623 -0.71536 33977 ft 463 kts 51°
2026-05-04 13:29 47.40905 -0.64386 33961 ft 466 kts 51°
2026-05-04 13:30 47.45377 -0.57492 33954 ft 471 kts 40°
2026-05-04 13:30 47.50633 -0.51687 33958 ft 473 kts 38°
2026-05-04 13:31 47.55948 -0.45967 33974 ft 472 kts 38°
2026-05-04 13:31 47.61243 -0.40182 33969 ft 471 kts 38°
2026-05-04 13:32 47.66495 -0.34369 33961 ft 469 kts 38°
2026-05-04 13:32 47.71705 -0.28571 33958 ft 467 kts 38°
2026-05-04 13:33 47.76859 -0.22820 33959 ft 465 kts 38°
2026-05-04 13:33 47.82023 -0.17047 33970 ft 464 kts 39°
2026-05-04 13:34 47.87181 -0.11266 33957 ft 464 kts 39°
2026-05-04 13:34 47.92339 -0.05471 33937 ft 463 kts 39°
2026-05-04 13:35 48.00019 0.03184 33970 ft 459 kts 39°
2026-05-04 13:36 48.05103 0.08932 33974 ft 458 kts 39°
2026-05-04 13:36 48.10180 0.14688 33972 ft 457 kts 39°
2026-05-04 13:37 48.15250 0.20450 33964 ft 458 kts 39°
2026-05-04 13:37 48.20287 0.26189 33971 ft 458 kts 39°
2026-05-04 13:38 48.25367 0.31993 33979 ft 460 kts 39°
2026-05-04 13:38 48.30470 0.37837 33959 ft 461 kts 39°
2026-05-04 13:39 48.35571 0.43692 33926 ft 462 kts 39°
2026-05-04 13:39 48.40673 0.49566 33955 ft 461 kts 39°
2026-05-04 13:40 48.45775 0.55453 33963 ft 462 kts 39°
2026-05-04 13:40 48.50917 0.61405 33949 ft 470 kts 39°
2026-05-04 13:41 48.56035 0.67340 33922 ft 458 kts 39°
2026-05-04 13:41 48.61035 0.73156 33953 ft 456 kts 39°
2026-05-04 13:42 48.68557 0.81937 33966 ft 455 kts 39°
2026-05-04 13:42 48.73577 0.87814 33955 ft 457 kts 40°
2026-05-04 13:43 48.78636 0.93684 33962 ft 458 kts 39°
2026-05-04 13:43 48.83718 0.99519 33966 ft 459 kts 39°
2026-05-04 13:44 48.88818 1.05397 33966 ft 461 kts 39°
2026-05-04 13:44 48.93896 1.11278 33968 ft 462 kts 39°
2026-05-04 13:45 48.99002 1.17208 33966 ft 462 kts 39°
2026-05-04 13:45 49.04087 1.23221 33963 ft 462 kts 43°
2026-05-04 13:46 49.08776 1.29896 33973 ft 460 kts 47°
2026-05-04 13:46 49.13364 1.36726 33955 ft 460 kts 47°
2026-05-04 13:47 49.17988 1.43494 33968 ft 461 kts 46°
2026-05-04 13:47 49.22645 1.50261 33974 ft 462 kts 46°
2026-05-04 13:48 49.27308 1.57055 33974 ft 462 kts 46°
2026-05-04 13:48 49.31937 1.63799 33969 ft 463 kts 46°
2026-05-04 13:49 49.36608 1.70616 33966 ft 463 kts 46°
2026-05-04 13:49 49.41269 1.77442 33964 ft 463 kts 46°
2026-05-04 13:50 49.45927 1.84285 33954 ft 463 kts 46°
2026-05-04 13:50 49.50581 1.91138 33975 ft 463 kts 46°
2026-05-04 13:51 49.55598 1.97452 33959 ft 469 kts 38°
2026-05-04 13:51 49.60921 2.03318 33962 ft 469 kts 37°
2026-05-04 13:52 49.68858 2.12136 33959 ft 468 kts 38°
2026-05-04 13:53 49.74073 2.18054 33951 ft 468 kts 38°
2026-05-04 13:53 49.79302 2.24028 33959 ft 467 kts 38°
2026-05-04 13:54 49.87168 2.33043 33949 ft 468 kts 39°
2026-05-04 13:55 49.94134 2.41051 33968 ft 467 kts 39°
2026-05-04 13:55 50.01964 2.50089 33963 ft 467 kts 39°
2026-05-04 13:56 50.07179 2.56128 33968 ft 467 kts 39°
2026-05-04 13:57 50.14960 2.65172 33959 ft 467 kts 39°
2026-05-04 13:58 50.25373 2.77335 33940 ft 467 kts 39°
2026-05-04 13:58 50.33182 2.86500 33961 ft 468 kts 39°
2026-05-04 13:59 50.38388 2.92632 33971 ft 468 kts 39°
2026-05-04 13:59 50.43630 2.98502 33546 ft 460 kts 31°
2026-05-04 14:00 50.46425 3.00914 33197 ft 455 kts 29°
2026-05-04 14:00 50.52005 3.05444 32409 ft 448 kts 28°
2026-05-04 14:00 50.54766 3.07710 32029 ft 445 kts 29°
2026-05-04 14:01 50.57489 3.09983 31656 ft 442 kts 30°
2026-05-04 14:01 50.60188 3.12264 31278 ft 439 kts 30°
2026-05-04 14:01 50.65522 3.16808 30539 ft 433 kts 30°
2026-05-04 14:02 50.68129 3.19031 30171 ft 430 kts 30°
2026-05-04 14:02 50.70749 3.21267 29769 ft 426 kts 30°
2026-05-04 14:02 50.73349 3.23463 29369 ft 423 kts 30°
2026-05-04 14:02 50.75938 3.25621 28997 ft 418 kts 29°
2026-05-04 14:03 50.78506 3.27754 28621 ft 415 kts 29°
2026-05-04 14:03 50.81046 3.29866 28246 ft 411 kts 29°
2026-05-04 14:03 50.83437 3.31859 27896 ft 407 kts 29°
2026-05-04 14:03 50.85941 3.33951 27521 ft 404 kts 28°
2026-05-04 14:04 50.90883 3.38094 26785 ft 399 kts 28°
2026-05-04 14:04 50.93329 3.40150 26424 ft 397 kts 28°
2026-05-04 14:04 50.95760 3.42196 26063 ft 394 kts 28°
2026-05-04 14:05 51.00539 3.46224 25350 ft 389 kts 28°
2026-05-04 14:05 51.02931 3.48244 25014 ft 387 kts 28°
2026-05-04 14:05 51.05306 3.50252 24654 ft 386 kts 28°
2026-05-04 14:06 51.07676 3.52258 24294 ft 384 kts 28°
2026-05-04 14:06 51.10026 3.54250 23942 ft 382 kts 28°
2026-05-04 14:06 51.12370 3.56239 23591 ft 381 kts 28°
2026-05-04 14:06 51.14707 3.58224 23184 ft 379 kts 28°
2026-05-04 14:07 51.17027 3.60196 22790 ft 377 kts 28°
2026-05-04 14:07 51.19332 3.62157 22421 ft 374 kts 28°
2026-05-04 14:07 51.21615 3.64103 22060 ft 370 kts 28°
2026-05-04 14:07 51.23983 3.65628 21689 ft 366 kts
2026-05-04 14:08 51.26492 3.65887 21417 ft 359 kts 359°
2026-05-04 14:08 51.28978 3.65812 21045 ft 356 kts 358°
2026-05-04 14:08 51.31448 3.65686 20693 ft 354 kts 357°
2026-05-04 14:08 51.33902 3.65560 20346 ft 351 kts 358°
2026-05-04 14:09 51.38756 3.65350 19680 ft 347 kts 358°
2026-05-04 14:09 51.41134 3.65263 19340 ft 345 kts 358°
2026-05-04 14:10 51.45909 3.65105 18672 ft 341 kts 358°
2026-05-04 14:10 51.48274 3.65029 18349 ft 339 kts 359°
2026-05-04 14:10 51.50618 3.64955 17986 ft 336 kts 359°
2026-05-04 14:10 51.52953 3.64882 17623 ft 334 kts 358°
2026-05-04 14:11 51.55264 3.64810 17282 ft 331 kts 358°
2026-05-04 14:11 51.59851 3.64665 16620 ft 326 kts 358°
2026-05-04 14:11 51.62114 3.64593 16299 ft 324 kts 358°
2026-05-04 14:12 51.64357 3.64522 15973 ft 322 kts 358°
2026-05-04 14:12 51.66594 3.64451 15655 ft 319 kts 358°
2026-05-04 14:12 51.70981 3.64804 14996 ft 317 kts 20°
2026-05-04 14:13 51.72847 3.66654 14654 ft 317 kts 43°
2026-05-04 14:13 51.74207 3.69448 14308 ft 316 kts 57°
2026-05-04 14:13 51.75372 3.72392 13981 ft 316 kts 57°
2026-05-04 14:13 51.76535 3.75411 13551 ft 318 kts 58°
2026-05-04 14:14 51.77694 3.78424 13270 ft 314 kts 57°
2026-05-04 14:14 51.80004 3.84378 12580 ft 311 kts 57°
2026-05-04 14:14 51.81151 3.87315 12301 ft 308 kts 57°
2026-05-04 14:15 51.83429 3.93138 11722 ft 301 kts 58°
2026-05-04 14:15 51.85641 3.98796 11191 ft 295 kts 58°
2026-05-04 14:16 51.87821 4.04379 10602 ft 292 kts 58°
2026-05-04 14:16 51.88903 4.07152 10307 ft 290 kts 58°
2026-05-04 14:17 51.91011 4.12563 10002 ft 277 kts 57°
2026-05-04 14:17 51.92223 4.14924 9889 ft 272 kts 44°
2026-05-04 14:17 51.94992 4.18918 9670 ft 262 kts 41°
2026-05-04 14:18 51.96360 4.20839 9578 ft 259 kts 41°
2026-05-04 14:18 51.99086 4.24717 9392 ft 263 kts 41°
2026-05-04 14:19 52.01795 4.28624 9172 ft 256 kts 42°
2026-05-04 14:19 52.03117 4.30544 9077 ft 254 kts 42°
2026-05-04 14:19 52.04432 4.32460 9008 ft 253 kts 42°
2026-05-04 14:19 52.05739 4.34369 8919 ft 253 kts 42°
2026-05-04 14:20 52.07044 4.36279 8823 ft 253 kts 42°
2026-05-04 14:20 52.08351 4.38194 8738 ft 253 kts 42°
2026-05-04 14:20 52.09659 4.40114 8642 ft 254 kts 42°
2026-05-04 14:21 52.12298 4.43992 8448 ft 257 kts 42°
2026-05-04 14:21 52.13619 4.45937 8359 ft 257 kts 42°
2026-05-04 14:21 52.14949 4.47898 8253 ft 257 kts 42°
2026-05-04 14:21 52.16273 4.49850 8166 ft 258 kts 42°
2026-05-04 14:22 52.17598 4.51807 8069 ft 256 kts 42°
2026-05-04 14:22 52.18897 4.53726 7961 ft 254 kts 42°
2026-05-04 14:22 52.20213 4.55671 7852 ft 250 kts 42°
2026-05-04 14:22 52.21495 4.57569 7765 ft 247 kts 42°
2026-05-04 14:23 52.23949 4.61207 7594 ft 227 kts 42°
2026-05-04 14:23 52.25091 4.62900 7500 ft 219 kts 42°
2026-05-04 14:23 52.26194 4.64537 7428 ft 217 kts 42°
2026-05-04 14:24 52.27319 4.66208 7364 ft 219 kts 42°
2026-05-04 14:24 52.28463 4.67909 7310 ft 226 kts 42°
2026-05-04 14:24 52.29647 4.69669 7224 ft 232 kts 42°
2026-05-04 14:24 52.30841 4.71448 7123 ft 232 kts 43°
2026-05-04 14:25 52.31730 4.73584 6998 ft 228 kts 76°
2026-05-04 14:25 52.30975 4.78264 6700 ft 218 kts 134°
2026-05-04 14:25 52.29876 4.79924 6481 ft 211 kts 141°
2026-05-04 14:26 52.28779 4.81473 6286 ft 205 kts 141°
2026-05-04 14:26 52.27707 4.83002 6098 ft 204 kts 140°
2026-05-04 14:26 52.26630 4.84546 5936 ft 210 kts 140°
2026-05-04 14:26 52.25515 4.86150 5754 ft 217 kts 140°
2026-05-04 14:27 52.24367 4.87803 5552 ft 222 kts 140°
2026-05-04 14:27 52.23218 4.89450 5342 ft 222 kts 142°
2026-05-04 14:27 52.21851 4.90427 5098 ft 214 kts 179°
2026-05-04 14:27 52.20412 4.90295 4952 ft 203 kts 184°
2026-05-04 14:28 52.19025 4.90169 4773 ft 196 kts 185°
2026-05-04 14:28 52.17659 4.90046 4614 ft 198 kts 184°
2026-05-04 14:28 52.16275 4.89920 4435 ft 201 kts 184°
2026-05-04 14:28 52.14870 4.89790 4249 ft 203 kts 184°
2026-05-04 14:29 52.12124 4.89420 3856 ft 190 kts 200°
2026-05-04 14:29 52.10801 4.86206 3570 ft 183 kts 268°
2026-05-04 14:30 52.10809 4.84822 3482 ft 186 kts 272°
2026-05-04 14:30 52.10911 4.81963 3243 ft 190 kts 275°
2026-05-04 14:30 52.12280 4.78496 2893 ft 185 kts 313°
2026-05-04 14:31 52.13201 4.77017 2707 ft 186 kts 326°
2026-05-04 14:31 52.15701 4.76571 2366 ft 183 kts 360°
2026-05-04 14:32 52.18123 4.76719 2025 ft 160 kts
2026-05-04 14:32 52.19187 4.76816 1951 ft 153 kts
2026-05-04 14:32 52.20225 4.76908 1746 ft 147 kts
2026-05-04 14:32 52.21230 4.77005 1593 ft 144 kts
2026-05-04 14:33 52.22225 4.77127 1429 ft 143 kts
2026-05-04 14:33 52.23221 4.77221 1214 ft 143 kts
2026-05-04 14:33 52.24200 4.77288 1047 ft 140 kts
2026-05-04 14:33 52.25163 4.77369 860 ft 136 kts
2026-05-04 14:34 52.26105 4.77455 616 ft 136 kts
2026-05-04 14:34 52.27056 4.77542 424 ft 138 kts
2026-05-04 14:34 52.28009 4.77641 242 ft 136 kts
2026-05-04 14:34 52.28951 4.77724 88 ft 135 kts
2026-05-04 14:35 52.29865 4.77808 -1 ft 123 kts
2026-05-04 14:35 52.30599 4.77869 -1 ft 86 kts
2026-05-04 14:35 52.31033 4.77911 -6 ft 46 kts
2026-05-04 14:35 52.31235 4.77928 -2 ft 22 kts
2026-05-04 14:36 52.31329 4.77892 -2 ft 12 kts 305°
2026-05-04 14:36 52.31311 4.77797 -2 ft 8 kts 233°
2026-05-04 14:36 52.31285 4.77722 -2 ft 8 kts 248°
2026-05-04 14:36 52.31279 4.77637 -2 ft 7 kts 272°
2026-05-04 14:37 52.31273 4.77555 -2 ft 7 kts 243°
2026-05-04 14:37 52.31232 4.77516 -2 ft 7 kts 187°
2026-05-04 14:37 52.31184 4.77511 -2 ft 7 kts 186°
2026-05-04 14:37 52.31127 4.77499 -2 ft 10 kts 186°
2026-05-04 14:38 52.31072 4.77439 -2 ft 10 kts 252°
2026-05-04 14:38 52.31065 4.77338 -2 ft 7 kts 235°
2026-05-04 14:38 52.31019 4.77316 -2 ft 6 kts 184°
2026-05-04 14:38 52.30999 4.77314 -2 ft 0 kts 183°